Location: Newark
(52.3735°N, 16.9806°E)
Time: 04:56:45
(UTC+00:00)

LilacSat-2 - Pass Details

Date: 07 December 2021
Orbit: 511 x 532 km, 97.5° (Epoch: 16 January)

Event Time Altitude Azimuth Distance (km) Brightness Sun altitude
Rises 05:59:21 0° 4° (N) 2,691 ? -7.0°
Reaches altitude 10° 06:01:47 10° 349° (N) 1,797 ? -6.7°
Maximum altitude 06:04:50 23° 297° (WNW) 1,181 ? -6.3°
Drops below altitude 10° 06:07:53 10° 245° (WSW) 1,788 ? -5.9°
Sets 06:10:18 0° 230° (SW) 2,673 ? -5.5°
